GSLV R/B (44442 NORAD) Tracking and Keplerian Element Data

This shows tracking and keplerian element data for the satellite.

Feedback or suggestion? Click here.




ElementValue
Catalog44442
NameGSLV R/B
Epoch Orbit45
Epoch Day228.60190811
Epoch Year2019
RAAN10.7546
Inclination21.4168
Eccentricity0.7748576
Argument of Perigee191.8066
Mean Anonmoly124.2772
Mean Motion1.76639814
Decay Rate0.00028313
L11 44442U 19042B 19228.60190811 .00028313 11958-5 12126-3 0 9993
L22 44442 21.4168 10.7546 7748576 191.8066 124.2772 1.76639814 459

Live tracking and technical data element details for GSLV R/B (NORAD 44442). GSLV R/B can be tracked NOW for your location showing map with azimuth and elevation plus other details from your city location.

Track the satellite on the map from your city or location and see movement details for azimuth, elevation, latitude, longitude, range, height, and movement on the map or in text.







IsCatalogInMostPopularTable: catalog: 44442, numindb: 5
Update: records affected: 1



GetName: 44442 GSLV R/B

Hit Count: updated at: Wed, 21 Aug 2019 11:57:53 GMT